Regional Weather Roundup
Issued by NWS

Home | Current Version | Previous Version | Graphics & Text | Print | Product List | Glossary On
Versions: 1 2 3 4 5 6 7 8 9 10 11 12 13 14 15 16 17 18 19 20 21 22 23 24 25 26 27 28 29 30 31 32 33 34 35 36 37 38 39 40 41 42 43 44 45 46 47 48 49 50
000
ASUS43 KLOT 192104
RWRIL

ILLINOIS REGIONAL WEATHER ROUNDUP
NATIONAL WEATHER SERVICE CHICAGO/ROMEOVILLE IL
400 PM CDT TUE SEP 19 2017

NOTE: "FAIR" INDICATES FEW OR NO CLOUDS BELOW 12,000 FEET WITH NO
SIGNIFICANT WEATHER AND/OR OBSTRUCTIONS TO VISIBILITY.

* THESE STATIONS ARE NOT UNDER NWS QUALITY CONTROL. THEY ALSO MAY NOT
  REPORT WEATHER SUCH AS PRECIPITATION OR FOG.

ILZ001-002-007-009-015-016-024-192200-
NORTHWEST ILLINOIS

CITY           SKY/WX    TMP DP  RH WIND       PRES   REMARKS
MOLINE         SUNNY     81  63  54 VRB3      29.88F HX  82
STERLING*        N/A     79  66  64 E8        29.90F HX  81
SAVANNA*       MOSUNNY   80  65  60 SE7       29.89F HX  82
$$

ILZ003-004-008-010-011-017-018-192200-
NORTH CENTRAL ILLINOIS

CITY           SKY/WX    TMP DP  RH WIND       PRES   REMARKS
ROCKFORD       MOSUNNY   80  63  55 E5        29.91F HX  81
FREEPORT*      SUNNY     79  64  58 SE6       29.92F HX  81
ROCHELLE*      MOSUNNY   78  64  63 CALM      29.91F
DE KALB*       MOSUNNY   77  65  66 SE3       29.92F
PERU*          SUNNY     75  64  67 CALM      29.91F
$$

ILZ005-006-012>014-019>023-192200-
NORTHEAST ILLINOIS

CITY           SKY/WX    TMP DP  RH WIND       PRES   REMARKS
CHICAGO-OHARE  PTSUNNY   77  62  59 E8        29.92F
CHICAGO-MIDWAY MOSUNNY   77  64  64 E10       29.92F
AURORA         PTSUNNY   82  64  54 VRB3      29.91F HX  83
LANSING*       MOSUNNY   75  67  74 N7        29.92S
JOLIET*        CLOUDY    79  66  65 E7        29.91S HX  81
WAUKEGAN       PTSUNNY   72  65  78 E8        29.93F
DUPAGE AIRPORT CLOUDY    78  65  63 NE10      29.91F HX  80
KANKAKEE*      PTSUNNY   77  64  63 CALM      29.91F
WHEELING       MOSUNNY   76  66  71 E8        29.94F
MORRIS*        SUNNY     81  63  54 CALM      29.89F HX  82
ROMEOVILLE*    PTSUNNY   76  63  62 E8        29.91S
NORTHERLY ISL    N/A     72  65  78 NE8         N/A
$$

LMZ740>746-192200-
SOUTHERN LAKE MICHIGAN

STATION/POSITION SKY/WX   TEMP    WIND        PRES    VSBY  WAVE
                          AIR SEA DIR/SP/G                  HT/PER
                          (F)     (DEG/KT/KT) (MB)    (MI)  (FT/S)
SOUTHERN BUOY              67 69   40/  6/  6 1014.2          1/ 4
WILMETTE HARBOR            69 70   40/  6/  8   N/A           1/ 5
HARRISON CRIB              69      40/  9/ 10   N/A
CALUMET HARBOR             71      20/  6/  9 1013.1F
BURNS HARBOR               69     360/  7/  9 1013.9S
MICHIGAN CITY              68      30/  8/  9   N/A
MICHIGAN CITY 6N           69 69   40/  8/ 10   N/A           1/ 4
ST. JOSEPH                 69 69   30/ 10/ 14 1013.3F         1
$$

ILZ025>027-034>036-040-047-049-050-058-095>099-192200-
WEST-CENTRAL ILLINOIS

CITY           SKY/WX    TMP DP  RH WIND       PRES   REMARKS
QUINCY         SUNNY     82  66  58 S9        29.86F HX  84
MACOMB*        MOSUNNY   80  64  57 E3        29.90F HX  82
PITTSFIELD*    SUNNY     85  68  56 S5        29.88F HX  88
$$

ILZ028>032-037-038-041>044-048-051>054-059>061-192200-
CENTRAL ILLINOIS

CITY           SKY/WX    TMP DP  RH WIND       PRES   REMARKS
PONTIAC        SUNNY     79  65  62 CALM      29.91F HX  81
BLOOMINGTON    PTSUNNY   80  64  58 CALM      29.91F HX  82
DECATUR        SUNNY     82  66  58 NW5       29.90F HX  84
PEORIA         MOSUNNY   79  65  62 MISG      29.90F HX  81
LACON*         MOSUNNY   76  67  73 CALM      29.90F
LINCOLN*       MOSUNNY   82  67  62 SW3       29.90S HX  84
SPRINGFIELD    PTSUNNY   86  66  51 CALM      29.88F HX  88
TAYLORVILLE    NOT AVBL
$$

ILZ033-039-045-046-055>057-062-063-192200-
EAST-CENTRAL ILLINOIS

CITY           SKY/WX    TMP DP  RH WIND       PRES   REMARKS
CHAMPAIGN      SUNNY     81  63  54 W5        29.91F HX  82
RANTOUL*       SUNNY     81  67  63 CALM      29.91F HX  83
MATTOON        CLOUDY    86  64  47 W7        29.88F HX  87
PARIS*         PTSUNNY   84  66  54 W9        29.90S HX  86
$$

ILZ079-100>102-192200-
SOUTHWEST ILLINOIS

CITY           SKY/WX    TMP DP  RH WIND       PRES   REMARKS
ALTON          MOSUNNY   86  68  54 SW7       29.88F HX  89
CAHOKIA*       SUNNY     91  61  36 S7        29.86F HX  91
SPARTA*        SUNNY     87  64  46 SW6       29.90S HX  88
$$

ILZ064>066-069>071-074>076-080>082-084>086-088>090-092>094-192200-
SOUTH-CENTRAL ILLINOIS

CITY           SKY/WX    TMP DP  RH WIND       PRES   REMARKS
CARBONDALE     MOSUNNY   86  70  58 VRB5      29.89F HX  90
CAIRO*         SUNNY     86  72  63 CALM      29.88F HX  92
EFFINGHAM*     MOSUNNY   88  62  41 SW6       29.90S HX  89
MARION         PTSUNNY   88  68  51 W7        29.89F HX  91
CENTRALIA*     MOSUNNY   87  67  52 S3        29.88F HX  89
SALEM*         MOSUNNY   88  65  45 SW7       29.89F HX  90
METROPOLIS*    HVY RAIN  88  70  55 W5        29.89F HX  93
$$

ILZ067-068-072-073-078-083-087-091-192200-
SOUTHEAST ILLINOIS

CITY           SKY/WX    TMP DP  RH WIND       PRES   REMARKS
LAWRENCEVILLE  PTSUNNY   83  66  56 CALM      29.90F HX  85
FLORA*         PTSUNNY   87  65  48 W6        29.89S HX  89
FAIRFIELD*     PTSUNNY   86  66  51 CALM      29.88S HX  88
HARRISBURG*    SUNNY     87  68  53 W9        29.89F HX  91
ROBINSON*      MOSUNNY   82  66  59 CALM      29.90S HX  84
CARMI*         MOSUNNY   85  69  58 S6        29.89S HX  89
$$

ABBREVIATIONS USED IN REMARKS
   TC - TEMPERATURE IN CELSIUS
  WCI - WIND CHILL INDEX
   HX - HEAT INDEX
  VSB - VISIBILITY
$$





USA.gov is the U.S. government's official web portal to all federal, state and local government web resources and services.